Terminal Aerodrome Forecast
Issued by NWS

Home | Current Version | Previous Version | Graphics & Text | Print | Product List | Glossary On
Versions: 1 2 3 4 5 6 7 8 9 10 11 12 13 14 15 16 17 18 19 20 21 22 23 24 25 26 27 28 29 30 31 32 33 34
000
FTUS43 KLOT 151600 AAB
TAFDPA
TAF AMD
KDPA 151600Z 1516/1612 16012KT 4SM BR OVC004
     FM151900 15012KT 6SM -SHRA BR OVC008
     FM152300 14013KT 4SM BR VCSH OVC009
     FM160200 13009KT 3SM -DZRA BR OVC007
     FM160700 VRB03KT 1SM -DZRA BR OVC003=

USA.gov is the U.S. government's official web portal to all federal, state and local government web resources and services.